Wind_Speed
15 17 17 17 17 19 21 22 24 24 24 23 22 22 22 21 22 21 20 19 18 17 17 16 15 14 14 13 12 12 12 12 12 12 13 13 14 14 14 15 15 15 15 14 14 14 14 13 12 12 12 13 14 14 15 15 16 16 16 16 16 16 17 17 17 17 17 17 17 18 19 19 19 19 19 18 17 17 16 16 16 17 17 17 16
12 15 17 17 17 17 19 22 23 24 25 25 25 24 23 23 23 23 22 21 20 19 19 18 17 17 16 16 15 15 14 14 14 15 15 15 16 16 16 16 16 16 16 16 15 15 15 14 14 13 12 12 13 13 14 15 15 15 15 16 16 16 16 16 16 16 17 17 17 17 17 18 18 18 19 19 18 18 17 17 17 17 17 18 18
12 12 14 17 17 18 19 21 22 23 23 23 25 26 25 25 25 24 24 24 23 22 21 21 20 19 19 19 18 18 18 17 17 17 18 18 18 18 18 18 18 18 17 16 16 16 16 16 15 14 13 13 13 13 14 14 15 15 15 15 15 15 16 16 16 16 16 17 17 16 16 17 17 17 17 18 18 18 18 18 17 17 17 18 19
13 12 12 14 17 18 19 19 20 21 21 21 22 25 26 27 26 26 26 26 25 25 24 23 23 22 22 22 22 22 21 21 20 20 20 21 21 20 20 20 20 19 18 18 17 17 17 17 17 16 15 14 14 13 14 14 15 15 16 16 16 15 16 16 16 16 16 16 17 17 16 16 16 16 16 16 17 17 17 18 17 17 17 17 18
15 14 13 12 14 16 18 19 19 20 20 20 20 22 24 26 26 26 27 27 27 27 26 25 25 25 24 24 25 25 25 24 24 23 23 23 23 23 22 22 21 21 20 19 18 17 17 17 17 17 16 16 15 15 15 15 15 16 16 17 17 17 17 16 17 17 17 17 17 17 17 17 16 16 16 16 16 16 17 17 18 18 17 18 18
16 15 15 14 13 13 15 17 18 19 20 20 20 21 22 24 25 25 26 26 27 28 28 27 27 27 27 27 27 27 27 27 26 26 26 26 26 25 24 24 23 22 21 21 20 19 18 18 18 18 18 17 17 16 16 16 16 16 17 18 18 18 18 18 18 18 19 19 19 19 19 19 18 17 17 17 17 17 17 17 18 20 20 19 19
17 17 16 16 15 14 14 14 16 18 19 20 20 20 21 22 23 23 24 25 26 27 28 28 28 28 29 29 29 29 29 29 29 28 28 28 28 27 26 25 24 23 22 21 21 20 19 19 18 18 18 18 18 18 18 18 17 18 18 18 19 19 19 20 19 20 20 21 21 21 21 21 20 20 19 18 18 18 18 18 19 21 22 21 20
18 18 17 17 17 16 15 15 15 16 17 19 20 20 20 20 21 21 22 23 24 25 26 27 27 28 29 30 30 31 31 30 30 30 29 30 29 28 27 26 25 25 23 22 21 21 20 20 20 19 19 19 19 19 19 19 19 19 19 20 20 20 21 21 21 21 22 22 22 23 23 23 23 22 21 21 20 19 19 20 20 21 23 23 22
20 19 19 18 18 18 18 17 16 16 16 17 18 19 19 19 19 20 21 22 22 23 24 25 26 27 28 29 29 30 31 30 30 30 29 30 30 29 28 27 26 26 25 24 23 22 21 21 21 21 21 21 21 20 20 21 21 21 21 21 21 22 22 22 22 23 23 24 24 24 25 24 24 24 24 23 22 21 21 21 21 21 23 24 24
23 22 21 21 21 21 20 19 18 17 16 16 17 18 18 19 18 18 20 21 22 22 23 24 25 25 26 27 27 28 28 29 29 29 29 29 29 29 28 27 27 27 26 25 24 24 23 23 23 23 23 23 22 22 22 22 22 22 22 22 23 23 23 23 24 24 25 25 26 26 27 27 26 26 26 25 25 24 23 23 23 23 23 24 25
27 26 25 24 24 24 23 22 20 19 18 17 16 17 18 18 18 17 17 18 20 21 22 23 24 24 25 26 27 26 26 27 27 28 28 27 28 28 28 28 28 27 27 27 26 25 25 24 24 25 25 25 25 24 25 24 24 24 23 23 24 25 26 26 26 26 27 27 28 28 28 28 28 28 27 27 26 26 25 25 24 24 24 25 26
29 29 28 28 28 28 26 24 22 21 20 19 18 17 17 17 18 18 17 16 17 19 21 22 23 23 24 26 27 26 26 26 27 27 27 27 27 27 28 28 28 28 27 27 27 26 26 26 26 26 27 27 27 27 27 27 27 26 26 25 25 26 28 28 28 29 29 29 30 30 30 30 30 29 29 28 27 27 27 27 26 26 26 26 26
30 30 30 31 31 30 29 27 25 23 22 20 19 19 18 17 17 17 17 17 17 17 18 19 21 22 24 25 26 26 26 27 27 28 28 28 27 28 28 28 29 28 28 27 27 27 27 27 27 28 28 29 30 30 30 29 29 29 29 29 28 28 29 30 30 30 30 31 31 31 31 31 30 31 30 30 29 28 28 28 28 27 27 28 28
33 32 34 35 34 32 32 30 27 25 23 22 21 20 18 17 17 17 18 18 18 17 16 16 18 20 21 22 24 25 25 26 27 28 28 28 28 29 29 30 30 30 29 28 28 28 28 28 28 29 29 30 31 33 33 32 31 31 31 31 31 31 31 31 32 31 31 31 31 32 32 32 31 31 31 31 30 30 29 29 29 28 28 28 29
35 35 36 38 37 34 32 30 28 25 24 23 22 21 20 19 18 18 18 19 19 19 17 16 16 17 19 20 21 23 23 24 26 27 28 28 29 29 30 31 32 32 31 30 29 29 30 30 30 30 30 30 31 33 34 34 34 33 33 33 34 33 33 33 33 33 32 32 31 31 32 33 32 31 31 31 31 31 30 30 30 29 29 29 29
39 37 38 38 37 35 32 30 27 26 24 24 23 22 21 20 20 19 19 20 20 21 20 18 16 16 17 18 19 20 21 22 23 25 26 27 28 29 30 31 32 32 32 31 30 29 29 30 30 31 30 30 30 31 32 34 35 34 34 34 34 35 35 35 35 34 33 32 32 32 32 33 33 32 31 31 31 31 31 31 30 30 30 29 29
42 41 41 40 37 36 33 30 27 26 25 25 24 23 22 22 21 21 21 21 21 22 22 21 19 18 17 18 18 18 19 20 21 22 23 25 27 28 29 30 31 32 32 32 31 29 27 27 28 29 28 28 29 29 30 31 32 34 34 34 34 34 35 36 36 35 34 33 32 32 32 32 33 33 31 31 31 31 31 31 30 30 31 30 29
46 45 44 41 36 34 33 30 27 27 27 26 26 25 24 24 23 23 22 22 22 23 23 23 22 20 19 18 18 18 18 18 19 20 20 22 25 27 28 29 30 31 32 32 32 30 28 27 28 28 27 26 27 28 28 28 28 30 32 33 33 33 34 36 36 35 34 33 33 33 32 32 32 32 31 30 31 31 31 30 30 30 31 30 29
48 48 46 42 36 33 32 30 28 28 28 28 27 27 26 26 25 25 25 24 23 23 24 25 24 23 21 19 19 18 18 18 19 19 19 20 22 24 26 27 28 29 30 30 31 31 31 31 31 30 29 27 27 27 27 27 26 27 28 29 31 32 34 35 35 34 33 34 33 33 32 32 31 31 29 29 30 31 30 30 30 30 30 30 29
51 51 48 44 39 36 33 30 29 30 31 30 29 29 28 28 28 28 27 26 25 25 25 26 26 25 23 22 20 19 19 19 20 20 19 19 20 22 24 26 27 27 28 29 30 31 32 33 34 35 33 31 30 28 28 28 29 29 30 30 31 32 33 34 34 33 33 34 34 33 32 31 30 29 28 28 29 29 29 29 29 30 30 30 28
54 53 51 48 45 42 38 34 31 32 34 33 32 31 30 30 30 30 29 28 28 27 27 27 27 27 25 24 23 22 21 21 21 21 20 20 19 20 22 24 25 25 26 27 29 29 30 32 34 35 36 35 33 31 31 31 32 33 33 33 32 31 30 31 32 33 34 34 33 32 31 30 29 28 27 27 28 28 28 28 29 30 30 29 29
58 56 53 51 49 48 45 40 36 35 36 36 34 33 31 31 31 32 31 30 30 29 28 28 28 28 27 27 26 25 24 23 22 22 22 21 20 20 21 23 23 24 25 26 27 28 28 29 31 34 35 35 35 35 34 33 33 33 33 32 31 30 30 31 32 33 33 33 33 31 30 28 27 27 27 27 28 27 27 28 29 30 30 29 29
60 57 54 52 52 52 51 47 41 39 38 38 38 36 33 31 32 33 33 32 31 30 30 29 29 30 30 29 29 28 27 27 25 24 23 22 21 21 22 22 22 22 24 25 25 25 26 28 30 31 32 34 35 35 35 35 35 34 33 33 33 33 33 33 33 33 34 34 33 31 29 27 26 26 27 28 28 28 28 29 30 31 30 29 29
60 58 55 53 53 54 54 50 45 41 40 40 40 38 36 34 34 35 34 33 33 32 32 31 31 32 31 31 31 30 30 30 29 27 25 23 22 22 23 23 22 22 24 25 24 24 24 26 27 28 29 31 33 34 35 36 36 35 36 37 38 37 36 36 35 35 36 36 34 31 28 27 27 27 28 29 30 30 30 31 32 31 30 29 29
62 60 58 56 55 55 54 50 46 43 41 41 41 40 39 37 36 36 36 35 35 35 35 34 34 34 34 34 33 33 32 32 32 30 28 26 24 23 23 23 23 23 24 25 25 25 24 24 25 26 27 29 31 32 33 34 35 36 37 38 39 39 39 38 37 37 37 36 34 31 28 27 28 28 29 30 32 33 33 33 32 32 31 31 32
64 62 61 59 57 56 54 51 47 44 42 42 42 41 41 39 38 38 38 37 37 38 38 38 37 37 37 36 36 34 33 34 34 33 31 29 27 25 24 24 24 23 24 25 25 25 24 24 25 25 26 27 28 30 31 32 34 35 37 38 39 40 39 39 37 35 34 33 31 30 29 29 30 31 32 33 34 35 35 34 33 34 34 35 37
66 64 63 61 59 57 54 51 49 47 45 44 44 44 43 42 40 40 40 40 40 40 41 41 40 40 40 39 37 35 35 36 37 36 33 30 28 26 25 25 25 24 24 25 25 25 25 25 25 25 25 26 26 28 29 31 32 34 36 37 39 39 40 39 37 35 32 31 31 32 32 33 34 35 35 36 36 36 36 36 36 36 37 38 39
70 67 65 63 61 58 56 54 52 50 49 48 47 46 45 44 43 42 43 42 42 42 43 43 44 44 43 41 39 37 37 39 41 39 34 30 28 28 28 27 26 25 25 25 25 26 26 26 26 25 25 25 25 27 28 30 31 33 35 36 38 38 39 39 38 37 35 35 35 36 37 37 37 37 38 39 39 39 38 38 38 39 40 40 40
72 69 67 65 63 61 59 57 55 53 52 50 49 48 47 46 45 44 44 44 44 44 45 45 46 47 46 44 42 40 40 42 43 40 36 32 31 31 30 29 27 27 26 26 26 27 27 27 26 25 25 25 25 26 28 29 31 33 34 36 37 37 38 38 38 38 38 38 39 39 39 40 40 41 41 42 42 41 41 41 41 41 40 40 40
74 72 69 67 65 63 61 59 57 55 53 52 51 50 49 47 46 45 45 45 46 46 47 47 48 49 48 46 45 44 43 44 43 41 39 37 34 32 31 30 29 28 27 26 27 28 28 27 26 25 25 25 26 27 28 29 31 32 33 34 35 35 36 37 37 38 39 39 40 40 41 42 42 43 43 43 42 42 42 42 42 41 41 40 40
77 75 72 69 67 65 63 60 58 56 55 54 52 50 49 47 47 47 47 47 47 48 49 50 50 50 50 49 48 47 47 46 44 43 42 40 36 33 31 30 30 30 28 28 29 30 28 27 26 24 24 25 26 27 29 30 31 32 32 32 33 33 34 35 36 37 38 38 39 40 40 41 41 42 42 42 41 41 41 41 41 41 40 40 39
79 77 74 71 69 67 64 62 60 58 57 56 54 50 48 48 49 49 48 48 49 50 52 53 52 52 52 53 52 51 50 49 47 46 45 41 38 34 32 31 31 30 29 30 31 30 29 27 25 25 26 26 27 28 29 30 31 31 31 31 31 32 33 34 35 37 37 37 38 39 39 39 39 40 40 39 38 39 39 39 39 38 38 38 37
80 78 76 73 70 69 66 64 62 61 60 59 55 51 49 50 51 51 49 49 51 53 54 55 54 54 54 55 55 54 53 52 51 50 47 43 40 36 33 31 31 31 31 31 31 30 29 27 26 26 28 28 28 29 31 31 31 31 32 33 31 30 31 34 36 37 37 37 37 37 37 36 37 37 37 36 37 39 39 39 37 37 36 36 36
82 79 77 74 72 71 68 65 63 62 61 59 56 53 53 54 54 53 51 50 52 54 57 58 57 55 55 57 57 57 56 54 54 53 51 46 42 37 34 33 33 32 32 32 31 30 29 27 26 27 28 28 30 32 32 31 31 34 39 41 38 35 35 38 40 39 38 37 37 37 37 36 37 39 40 41 42 43 43 42 40 38 37 36 36
82 79 77 76 75 72 70 67 65 64 62 59 57 55 55 56 56 54 52 52 53 54 58 60 57 55 55 57 58 59 59 58 58 57 54 49 44 39 36 36 35 34 34 33 32 31 29 28 27 26 26 28 30 31 30 29 30 37 42 44 45 46 47 47 47 45 41 39 40 41 40 40 42 44 46 45 45 45 45 44 42 40 39 38 37
82 79 78 78 76 74 72 69 67 63 59 57 57 57 56 57 57 56 55 54 54 55 57 58 56 53 54 57 57 57 58 59 61 62 58 52 46 42 39 38 37 36 35 34 33 32 30 28 26 24 23 25 28 26 26 30 37 43 46 48 51 52 51 50 48 47 44 42 42 42 42 43 45 47 48 46 44 44 43 42 41 41 41 39 38
82 80 79 79 77 75 73 70 67 62 57 55 56 58 59 58 57 58 58 57 57 57 58 58 56 54 54 56 57 58 58 59 60 62 60 54 48 45 43 41 38 37 36 36 35 33 30 28 26 23 20 21 20 14 17 28 39 46 48 50 53 55 55 54 51 49 47 46 45 45 46 47 47 48 47 46 45 44 44 43 43 42 41 40 39
83 81 80 79 78 76 74 71 68 62 56 52 53 56 57 57 56 58 61 61 61 61 62 61 59 58 56 56 57 59 59 57 56 58 58 56 52 48 46 43 40 38 39 38 37 34 31 29 27 22 16 15 13 10 18 27 38 47 49 49 53 59 60 57 53 49 48 47 47 48 50 50 49 48 48 47 47 47 46 46 45 44 42 41 41
85 83 82 81 80 78 74 71 67 60 53 52 53 55 56 59 61 64 67 67 66 66 66 64 63 62 60 58 58 58 57 57 55 54 54 55 54 51 48 45 43 42 42 41 38 34 32 30 27 24 15 8 9 12 20 26 34 43 49 53 59 63 62 58 53 49 47 46 46 48 50 50 50 49 48 47 47 47 46 46 45 45 44 45 45
86 85 83 82 81 79 75 71 66 60 57 59 62 61 59 60 63 68 73 73 70 69 68 67 65 63 61 60 60 57 55 55 57 55 52 52 54 53 50 46 46 46 45 42 38 36 34 32 29 26 21 13 12 20 28 32 35 43 50 54 58 63 64 62 57 52 49 47 47 47 48 49 49 48 47 47 46 46 46 46 46 46 46 47 48
87 86 84 83 81 79 75 70 66 63 63 65 66 65 64 63 63 67 73 76 73 70 69 69 66 64 61 60 61 59 55 55 58 57 52 50 51 52 51 50 50 49 46 43 41 38 36 34 31 28 25 23 25 30 34 36 37 43 48 49 49 53 58 60 58 55 52 50 48 48 48 48 48 48 48 48 48 48 48 48 48 48 49 49 50
89 87 85 83 81 78 74 70 67 65 66 67 67 68 68 68 68 69 72 74 72 70 69 67 64 61 59 58 58 58 55 55 58 58 55 51 50 51 52 53 52 50 48 46 43 40 38 36 34 30 28 30 32 34 35 36 37 41 45 46 46 47 50 53 55 54 51 50 49 50 49 48 47 48 50 51 51 52 52 52 52 52 52 53 53
90 88 85 83 80 76 73 70 68 67 67 68 70 71 72 72 72 71 70 70 70 68 66 64 62 59 57 56 55 55 54 55 58 59 57 55 53 53 54 55 54 51 50 48 45 41 39 37 35 33 33 35 36 36 37 38 39 40 43 46 47 47 47 49 51 51 49 49 49 49 48 46 47 50 53 54 55 56 57 57 57 58 58 58 58
91 88 84 81 79 76 73 71 70 70 70 71 72 73 73 72 72 71 70 69 68 65 63 61 60 59 57 55 54 53 53 54 56 58 58 57 56 55 56 56 54 52 51 49 45 41 39 37 36 37 38 39 39 38 39 40 41 42 45 46 47 48 48 48 48 48 47 47 47 47 47 49 51 54 56 56 57 58 59 60 61 62 63 63 64
91 88 84 80 77 75 73 72 73 73 73 73 72 72 71 70 69 70 70 69 67 64 62 60 59 57 55 53 53 54 54 54 54 56 57 59 61 59 58 56 55 53 51 48 43 39 39 40 41 42 43 43 42 42 43 44 44 44 45 47 48 49 48 48 48 48 47 46 47 47 49 52 54 56 57 57 59 60 61 62 63 64 65 67 68
91 87 82 78 75 72 72 71 71 71 71 69 66 65 67 68 69 69 69 69 67 63 60 60 59 56 53 51 52 55 57 56 55 54 55 60 63 63 59 56 55 53 48 43 41 41 43 45 46 46 45 44 45 46 47 47 46 45 47 49 50 49 48 47 48 50 50 49 48 49 50 52 54 56 58 60 61 61 62 64 65 67 68 70 71
90 85 79 74 71 69 68 67 65 63 62 60 59 61 66 70 71 70 68 65 63 60 57 57 57 55 52 52 55 58 58 58 57 56 56 58 60 61 60 57 53 49 45 43 45 48 49 48 47 46 46 46 48 49 49 49 48 47 47 47 44 44 45 47 49 51 53 54 54 54 54 55 57 59 61 62 62 63 64 66 68 69 71 73 74
88 82 76 70 67 64 63 62 61 58 56 56 61 69 75 78 76 72 65 60 56 54 53 53 53 52 52 54 57 58 59 60 60 58 54 53 53 55 57 55 51 47 46 49 52 51 50 49 49 48 47 48 50 51 51 50 49 49 48 46 45 47 51 54 54 54 55 56 57 58 58 59 60 62 63 64 64 65 67 69 70 72 73 74 75
87 82 76 70 65 61 58 56 58 59 58 59 63 70 76 78 77 73 67 61 56 52 50 50 50 51 54 57 59 59 59 59 56 53 52 53 53 52 51 51 50 50 54 58 57 55 54 54 53 51 50 50 52 53 52 50 49 48 48 48 51 55 57 58 58 57 56 57 58 59 59 61 63 65 65 66 67 69 71 72 74 75 76 75 75
88 84 79 72 66 63 61 56 52 54 59 62 64 65 67 69 69 66 62 58 55 52 48 46 47 50 53 54 55 56 56 52 49 49 51 53 54 53 52 52 55 58 62 63 62 62 61 59 55 52 50 51 54 55 52 47 46 49 52 54 56 59 61 61 60 59 58 58 59 60 61 63 66 67 69 71 72 74 75 77 78 79 80 79 78
91 86 82 75 68 66 66 61 53 49 52 58 61 61 60 61 62 61 56 52 49 46 43 41 42 46 49 51 52 52 52 53 56 59 59 58 58 59 60 62 64 66 69 70 71 70 66 61 57 56 56 57 58 56 50 46 48 55 60 61 60 60 60 60 61 61 60 61 62 63 64 66 68 70 73 75 77 79 80 82 82 83 83 82 81
Wind_Direction
196 195 199 206 216 226 234 238 240 242 243 243 241 238 237 236 238 241 245 248 250 252 254 256 258 263 267 273 279 285 291 297 302 308 313 319 324 328 332 335 338 342 344 346 349 351 354 356 358 359 358 357 357 359 2 6 10 13 16 18 20 21 22 22 20 19 21 24 26 24 24 26 26 26 27 28 27 26 26 24 18 12 9 8 11
209 197 197 201 208 219 230 238 240 241 243 245 247 248 247 245 244 245 248 250 253 255 258 261 264 268 272 276 280 284 288 293 297 301 306 311 316 320 323 327 330 333 336 338 340 342 344 346 349 351 351 349 348 347 349 352 356 0 5 8 11 12 13 14 13 11 10 11 15 15 15 17 18 19 20 21 21 20 20 21 19 14 8 5 6
230 212 201 200 203 210 221 233 240 243 243 244 246 249 251 251 251 252 252 254 256 257 260 263 268 272 275 278 281 284 287 290 294 297 301 305 309 313 316 319 322 325 328 330 333 335 336 338 339 342 344 344 342 339 338 340 342 346 350 355 359 2 4 5 4 4 3 1 3 5 5 6 7 9 11 12 13 12 11 13 13 12 9 5 3
235 232 218 207 206 208 213 223 234 243 246 246 247 248 251 253 254 255 256 258 260 262 263 265 268 272 276 279 282 284 286 289 291 294 298 301 304 307 310 313 316 318 321 323 326 328 330 331 332 334 336 337 337 335 332 331 332 334 337 341 345 349 352 354 355 355 355 354 353 354 355 356 356 357 359 1 3 2 2 2 1 3 5 5 2
230 236 237 228 219 214 214 217 225 235 243 247 247 248 250 253 255 257 258 260 262 265 267 268 270 272 274 277 280 283 286 288 290 293 296 298 301 303 305 308 310 312 315 318 320 322 324 325 326 327 329 331 331 330 329 327 325 325 327 329 333 337 340 343 344 344 345 346 345 345 345 346 347 346 347 349 349 350 352 352 349 348 354 359 359
229 233 239 243 239 230 223 221 223 229 236 242 245 246 248 251 254 256 259 261 264 267 270 272 273 274 275 276 279 281 284 286 289 291 293 296 298 300 303 305 307 308 311 314 316 318 319 320 321 322 323 325 326 326 325 324 323 322 321 322 324 327 330 333 335 335 336 337 338 338 337 338 338 338 339 339 338 338 340 342 339 337 341 348 353
230 232 235 241 246 245 239 233 230 231 235 239 243 245 246 247 250 253 257 260 263 267 271 275 277 277 278 278 279 281 283 286 289 291 293 294 296 299 301 303 304 306 308 311 313 315 316 317 317 318 319 320 321 322 322 322 321 320 319 319 319 321 323 325 327 328 329 330 331 331 332 331 331 331 331 331 330 331 332 332 331 330 332 337 344
232 235 236 238 243 246 246 243 241 241 242 243 246 249 250 250 250 251 253 256 260 265 269 273 276 278 279 281 281 282 284 286 288 291 293 294 296 298 300 302 303 304 307 309 311 313 314 315 315 315 315 316 317 318 318 318 319 319 318 318 318 318 319 320 321 322 323 323 324 325 326 326 326 325 325 324 324 325 326 325 324 324 325 327 333
236 239 240 241 242 244 245 246 245 246 248 251 254 256 258 258 255 252 252 253 256 260 264 269 272 275 278 280 281 282 284 286 288 290 292 294 296 298 300 301 302 303 305 308 309 311 312 312 312 313 313 314 314 315 315 315 315 316 317 316 316 316 316 317 317 318 318 319 319 319 320 321 321 321 320 319 319 319 320 320 319 319 320 321 324
238 242 244 245 246 245 245 246 246 247 248 252 258 262 265 267 265 261 257 254 255 256 259 263 267 270 274 277 279 280 282 285 287 289 291 293 295 297 299 300 302 303 305 307 308 309 310 310 311 310 311 311 312 312 312 311 311 313 314 314 314 315 315 315 316 315 316 316 316 316 316 317 317 317 317 316 315 315 315 316 316 316 317 318 319
230 235 239 244 247 247 247 247 248 248 248 249 254 260 266 271 274 275 269 262 258 256 257 259 263 266 270 273 275 277 279 281 284 286 288 291 293 295 297 298 300 301 303 305 307 308 309 309 309 308 309 309 309 309 308 308 308 309 310 311 312 312 313 314 314 314 314 314 314 314 314 314 314 314 314 313 312 311 311 311 313 314 315 316 316
226 229 232 237 243 247 247 247 248 250 250 250 251 255 261 268 276 282 282 277 268 262 260 262 263 265 267 270 274 277 278 279 280 282 285 288 290 292 294 295 297 299 300 303 305 307 308 308 308 308 307 307 306 306 305 305 306 307 307 308 309 309 310 311 313 313 314 313 313 313 312 312 312 311 311 310 309 308 308 308 309 311 314 315 314
233 233 232 233 237 242 245 246 247 249 251 252 253 254 258 264 272 279 284 284 280 274 269 267 268 269 271 273 276 279 280 280 281 282 284 287 289 290 292 293 295 296 298 301 303 305 306 307 307 307 307 306 305 304 304 304 305 305 306 306 307 307 308 309 310 311 312 312 312 312 312 312 312 310 310 309 308 307 307 306 307 309 312 313 313
239 239 237 234 235 238 241 244 246 249 252 254 256 258 260 263 268 273 279 282 284 284 281 275 273 275 277 279 281 283 285 284 284 285 286 287 289 290 291 292 293 294 297 299 301 304 305 306 306 305 305 304 303 303 303 304 305 305 305 305 306 307 307 308 309 309 310 311 312 312 312 311 311 310 308 308 307 307 306 306 306 307 309 311 311
242 242 239 236 237 239 241 244 246 249 253 256 259 261 262 263 266 270 275 279 283 286 287 284 282 282 284 287 287 289 292 292 290 289 289 289 289 289 289 290 291 293 295 297 300 304 306 306 305 304 303 302 302 301 301 302 303 305 305 305 305 306 306 307 307 307 308 309 310 310 311 310 309 308 307 307 307 307 307 306 306 306 307 308 309
242 242 237 233 237 242 244 247 249 251 256 260 262 264 265 265 267 269 272 277 282 285 288 290 290 288 289 290 291 295 300 301 298 296 294 292 291 289 289 290 291 292 293 295 298 302 305 306 305 304 303 302 302 301 301 301 302 303 304 304 304 305 306 306 306 306 306 307 307 308 308 307 306 306 306 307 307 307 307 307 306 305 305 305 306
239 239 234 231 236 242 244 249 253 255 259 263 265 267 267 267 268 269 271 275 279 283 287 290 291 291 291 293 296 300 303 305 305 304 301 297 294 293 293 292 292 291 291 291 293 297 302 305 304 303 303 303 302 301 302 302 302 303 303 303 303 303 304 304 304 305 305 305 304 304 304 304 303 304 306 308 308 308 308 307 306 304 303 303 304
235 234 230 230 236 241 243 248 254 257 260 263 265 267 268 267 268 269 271 273 276 280 284 287 289 291 292 293 297 300 301 303 304 306 305 302 298 296 296 296 294 293 291 290 290 291 296 300 301 302 303 302 302 302 302 302 301 301 302 302 302 302 302 301 301 303 304 302 300 300 300 300 301 304 307 309 309 308 308 308 306 303 302 302 302
234 231 228 229 236 241 243 247 253 258 260 261 263 265 266 268 268 268 269 271 273 276 279 283 285 287 290 292 293 294 296 298 299 301 304 303 300 298 298 297 296 296 295 293 291 289 289 290 293 296 299 300 301 302 302 301 300 300 300 300 300 300 299 299 300 300 300 297 296 296 297 299 302 305 308 308 308 308 308 307 305 302 300 300 300
233 232 230 231 235 238 241 246 253 258 260 259 259 261 263 265 266 267 267 269 271 273 275 278 281 283 286 287 287 288 288 290 292 296 299 300 299 298 297 296 297 300 300 297 294 290 287 286 286 288 291 294 296 299 300 300 300 300 299 299 298 297 297 297 298 297 295 293 293 295 297 301 303 305 307 307 306 305 305 305 303 300 299 299 299
232 232 232 234 236 238 240 244 251 257 259 258 257 257 257 260 263 266 267 268 270 272 274 276 278 280 281 283 283 282 282 283 287 290 293 294 296 296 295 295 299 303 302 300 298 295 291 288 286 285 286 288 290 292 294 296 297 299 300 300 298 295 294 293 292 291 291 291 294 297 300 303 304 304 304 303 301 301 302 301 299 298 299 300 299
230 231 232 234 237 238 240 244 251 255 255 256 256 253 252 255 259 263 265 267 269 271 273 275 276 277 278 279 279 279 279 280 282 285 287 289 291 292 292 295 301 304 303 304 305 303 298 293 289 287 286 287 287 288 289 291 293 297 299 299 297 294 292 291 290 291 292 294 298 300 301 302 302 301 299 296 296 297 297 296 297 299 301 301 299
231 231 231 232 234 237 240 245 249 251 251 252 254 253 250 252 256 259 262 266 267 269 271 272 273 274 275 275 276 276 277 278 279 280 281 283 286 288 290 294 301 303 303 306 310 310 304 297 293 293 292 290 288 287 287 288 289 292 294 293 293 293 294 295 296 296 297 299 301 300 299 299 298 295 293 292 293 294 294 295 299 302 302 299 297
233 233 233 233 235 237 241 244 246 247 247 249 252 252 250 252 256 259 261 265 267 266 267 268 269 270 270 271 272 273 274 276 277 277 278 280 282 285 288 294 300 303 304 307 312 313 309 303 300 298 296 292 291 290 289 288 288 288 288 288 289 290 292 294 296 297 299 300 299 297 295 294 293 291 290 290 292 293 295 298 301 301 297 295 293
234 235 236 236 236 237 240 242 243 244 245 247 249 249 249 252 256 258 260 264 265 264 264 266 267 268 267 268 269 269 271 274 275 276 278 279 280 283 288 293 298 301 304 308 314 316 313 308 303 299 295 294 294 293 292 290 289 287 286 286 287 288 290 291 293 295 297 297 296 293 292 291 290 289 289 290 292 294 296 298 298 295 293 292 292
233 235 237 237 237 238 239 241 242 243 243 245 245 245 248 253 256 257 259 262 263 262 262 264 266 267 266 266 267 269 271 273 274 275 277 278 281 285 288 290 294 298 303 308 314 316 315 311 306 301 299 298 298 297 296 294 292 290 289 288 288 288 289 290 292 294 295 295 293 291 290 290 290 290 290 292 293 294 295 296 294 293 292 293 294
233 234 236 238 238 239 239 240 242 242 242 243 243 244 248 252 254 255 258 260 261 260 261 264 267 268 267 267 268 270 272 273 273 274 275 278 283 287 287 287 291 296 300 305 311 314 314 313 311 307 303 301 300 299 298 297 295 293 292 290 289 290 291 291 291 292 293 293 291 290 290 290 290 291 291 292 292 293 293 293 293 293 294 296 297
233 234 235 237 239 239 240 241 243 244 244 244 244 246 248 251 252 254 256 259 260 259 259 263 267 268 268 268 269 270 271 271 272 273 275 279 282 283 283 285 290 293 296 301 307 309 311 314 314 310 305 302 300 299 299 298 297 296 294 293 293 293 293 292 291 290 289 288 288 289 290 290 290 290 290 290 291 292 292 292 292 294 295 296 297
233 234 235 236 237 239 240 241 243 244 245 245 247 248 250 251 252 254 256 259 260 259 258 261 265 267 268 268 269 269 269 269 270 273 276 277 277 277 280 284 288 290 293 298 302 304 308 313 315 312 307 303 300 299 299 298 297 296 296 297 298 297 296 294 293 291 290 289 288 288 288 288 289 289 289 291 292 292 292 292 293 294 294 294 296
233 234 235 236 237 239 240 241 243 244 245 245 247 249 252 253 254 255 257 258 259 258 258 260 264 266 267 267 268 268 267 267 270 272 273 273 273 274 278 282 285 288 292 296 298 300 306 312 314 312 310 306 304 302 302 300 299 298 299 300 300 300 299 297 295 293 292 291 290 289 288 289 289 290 291 292 293 293 293 293 293 293 293 294 295
233 234 235 236 237 239 239 240 242 244 245 246 248 250 252 255 256 256 258 259 260 259 260 262 265 267 267 267 267 267 267 268 269 269 270 270 271 273 275 277 281 285 289 292 293 297 304 310 313 315 315 313 311 310 308 306 304 303 302 302 301 302 301 300 297 296 295 294 293 291 290 291 292 293 294 294 295 295 295 294 294 294 295 296 296
233 234 235 236 237 238 239 240 241 243 245 247 249 250 253 254 255 257 259 261 261 261 262 264 266 267 267 267 267 266 266 267 267 267 268 269 269 270 271 273 277 281 284 286 288 294 302 306 309 316 318 317 318 318 314 311 309 306 304 302 301 302 303 301 298 296 295 295 293 292 292 293 293 294 295 296 296 296 295 294 295 296 296 297 297
233 234 235 236 237 238 238 240 241 243 245 247 250 252 253 253 253 254 257 260 261 261 262 263 265 266 266 267 267 267 267 267 267 267 267 267 267 268 269 271 273 275 278 281 284 291 298 302 307 314 319 322 324 322 319 317 316 313 309 306 304 302 301 298 296 297 299 299 298 297 297 296 295 296 298 298 297 296 296 296 297 296 295 294 295
233 235 236 236 237 238 239 240 242 244 247 250 253 255 256 255 254 255 256 258 261 263 263 263 263 263 264 266 266 267 267 268 267 267 266 266 267 267 267 268 269 270 273 278 282 287 293 298 304 311 320 328 330 329 330 330 322 309 303 301 301 301 300 299 300 303 303 301 300 301 300 298 296 296 298 299 298 297 298 298 297 295 292 291 292
233 234 236 237 238 239 240 242 243 246 249 253 256 258 259 259 259 259 259 260 263 266 267 268 268 267 268 269 269 269 269 268 267 266 266 266 265 266 266 265 265 268 271 274 278 283 288 294 300 309 321 335 341 343 342 330 307 291 285 285 288 293 298 300 303 304 300 296 295 296 295 293 292 292 292 294 296 298 298 296 295 293 292 290 289
232 233 235 238 239 241 242 243 245 248 251 255 259 260 260 260 261 261 261 261 263 264 266 268 270 271 272 273 274 274 274 273 269 266 265 266 266 265 264 263 263 265 268 271 274 278 283 289 296 305 322 346 359 357 337 310 289 278 275 276 280 287 293 295 296 297 295 291 290 291 291 289 287 287 287 289 292 295 295 293 293 293 294 292 289
231 233 235 237 239 241 243 244 245 247 249 252 256 258 259 259 261 263 263 261 260 260 261 264 267 268 269 271 274 276 277 277 275 271 268 267 267 265 263 262 263 264 266 269 271 274 279 284 289 298 324 356 11 355 310 292 283 278 277 278 282 287 290 291 290 291 292 290 287 286 287 287 286 285 286 287 289 290 290 290 291 292 293 292 290
231 232 234 236 239 240 242 243 245 246 247 251 256 260 262 261 260 261 261 260 258 258 259 259 261 264 266 268 272 274 275 276 278 277 272 268 267 266 264 263 262 263 264 266 268 271 275 278 282 290 317 359 7 319 286 283 282 280 279 281 286 289 290 289 287 288 289 290 288 285 285 285 285 286 286 287 287 287 287 288 289 290 290 290 289
231 232 234 236 238 239 240 242 243 243 243 246 249 253 257 258 258 257 259 259 258 258 258 259 260 263 266 268 271 274 276 275 275 277 277 274 270 268 266 264 262 261 261 263 266 268 270 272 276 283 294 339 0 313 290 286 286 283 281 283 286 286 285 285 285 285 285 286 286 285 285 286 287 287 286 287 287 288 288 288 288 288 288 288 287
231 232 234 235 237 239 240 240 241 239 236 235 237 238 240 246 251 255 257 258 257 256 257 258 259 262 265 267 269 271 274 273 271 271 274 277 276 271 266 263 261 260 260 262 264 265 266 268 272 276 279 289 304 294 287 289 291 288 286 286 284 280 279 281 283 284 283 283 284 285 286 288 289 288 288 288 289 289 290 289 289 289 289 288 288
231 232 234 235 236 238 239 238 238 237 235 234 234 234 234 237 242 248 253 255 256 255 255 257 258 260 263 266 267 269 270 270 267 265 268 274 277 273 268 263 261 260 260 261 262 262 264 266 269 271 275 283 293 294 292 293 294 291 289 290 286 279 275 277 279 281 283 285 286 287 288 288 289 290 292 292 292 293 293 293 292 292 293 292 291
229 231 233 234 236 237 238 237 236 236 237 237 237 237 236 237 238 243 249 252 254 255 256 258 260 262 264 266 269 271 270 267 264 263 264 267 271 272 269 264 261 259 259 260 260 261 263 266 268 271 275 283 291 295 294 293 291 288 288 290 290 285 280 276 275 277 281 284 287 288 288 287 289 292 294 295 295 295 295 295 295 294 294 293 292
229 230 232 234 235 236 237 237 236 235 236 238 239 239 239 239 240 244 248 251 252 255 257 259 261 263 265 268 271 272 270 268 266 265 264 263 264 268 268 264 259 257 258 258 259 261 263 265 267 271 278 285 290 290 290 289 287 285 285 288 289 288 284 278 273 273 276 282 286 287 285 285 288 292 294 295 295 295 295 295 295 294 294 293 292
229 229 231 233 235 236 236 237 236 236 235 236 238 239 240 240 242 245 249 252 253 255 257 259 260 262 264 267 269 271 271 270 268 266 264 260 260 264 265 261 255 254 256 258 259 261 263 266 271 277 283 287 288 288 288 287 285 283 285 285 285 284 283 278 272 269 272 277 282 283 284 285 288 291 293 294 294 294 294 295 294 294 293 293 292
228 229 230 231 233 235 236 236 236 236 236 236 238 240 242 243 245 248 250 253 255 256 257 259 261 261 263 265 268 270 271 270 268 266 262 258 258 261 261 256 252 253 255 256 259 262 267 273 279 284 287 287 288 288 289 287 285 284 284 283 280 279 280 277 271 266 268 274 279 282 284 286 288 290 291 292 292 292 292 292 293 293 293 293 292
227 228 228 229 231 233 235 236 237 238 238 238 240 244 247 249 249 251 252 253 255 257 259 260 261 262 263 265 267 269 271 271 270 266 261 258 258 259 257 252 250 251 252 254 261 270 277 282 284 286 287 287 289 290 289 286 284 284 283 281 277 275 276 276 271 267 268 272 277 281 285 286 287 289 290 291 291 291 291 291 292 293 293 292 292
225 225 225 225 227 229 232 234 236 236 235 234 236 243 248 249 249 250 251 253 255 257 260 262 263 264 266 267 268 268 270 272 271 268 264 261 258 255 251 249 249 249 252 263 274 280 283 284 285 286 288 289 291 290 287 284 284 283 282 280 276 271 273 277 275 271 269 271 275 279 283 286 288 290 291 292 292 292 293 294 294 294 294 294 293
223 221 220 220 222 225 228 231 233 233 230 227 227 232 238 241 243 245 247 249 252 256 260 264 266 267 268 269 269 269 271 274 274 269 261 254 250 249 248 247 246 250 262 276 283 285 286 287 288 288 290 292 292 290 288 286 285 284 282 280 275 272 274 278 278 274 272 272 275 277 281 285 289 292 293 293 292 293 294 295 296 297 297 297 296
221 218 215 216 218 219 221 227 230 230 229 227 226 229 234 237 239 241 244 247 251 256 263 269 272 272 271 271 270 271 273 275 271 261 251 245 245 246 244 243 246 258 272 281 285 287 289 290 290 291 292 293 293 292 289 286 285 285 283 280 277 276 276 278 277 274 272 273 274 276 279 283 287 291 292 293 293 293 294 296 297 298 299 299 298
219 216 213 214 215 215 216 220 225 228 230 230 229 229 232 235 237 240 242 245 249 255 261 266 270 270 269 268 267 268 270 265 253 243 240 241 242 241 240 243 252 264 273 279 282 286 288 289 290 291 292 292 292 291 288 285 285 286 285 283 281 280 279 277 275 273 272 272 274 276 279 283 287 290 292 293 294 295 295 296 297 298 298 299 299
217 215 213 213 215 216 217 218 219 223 228 230 228 226 227 233 237 239 237 238 243 250 253 254 255 256 254 252 253 256 255 246 237 236 241 246 247 247 250 254 260 267 273 277 280 283 285 286 287 288 289 291 291 288 282 278 279 282 284 284 284 283 280 276 274 273 273 273 274 276 279 282 286 290 292 294 294 295 296 296 297 297 298 298 298
Height
11000 11001 11003 11005 11007 11009 11010 11012 11015 11016 11018 11019 11020 11021 11022 11023 11023 11023 11024 11025 11025 11025 11026 11026 11026 11026 11026 11026 11026 11026 11026 11025 11025 11025 11025 11025 11025 11025 11025 11024 11023 11023 11022 11021 11020 11019 11019 11018 11017 11016 11015 11014 11012 11012 11011 11010 11009 11009 11008 11007 11006 11005 11004 11003 11002 11000 11000 10999 10998 10996 10995 10994 10993 10992 10990 10989 10988 10987 10986 10985 10984 10982 10981 10980 10978
10999 11000 11000 11002 11004 11006 11008 11009 11011 11013 11015 11017 11019 11019 11021 11021 11022 11022 11023 11023 11024 11024 11025 11025 11025 11026 11025 11025 11025 11025 11025 11025 11024 11024 11024 11024 11024 11024 11024 11024 11023 11022 11022 11021 11020 11019 11018 11018 11017 11016 11015 11014 11013 11012 11011 11010 11009 11009 11008 11008 11007 11006 11005 11003 11002 11001 11000 10999 10998 10997 10996 10994 10993 10992 10990 10989 10988 10986 10985 10984 10983 10982 10980 10979 10977
10999 10999 10999 11000 11001 11003 11004 11006 11007 11009 11012 11014 11016 11017 11019 11020 11020 11021 11021 11022 11022 11023 11023 11024 11024 11024 11024 11024 11024 11023 11024 11024 11024 11023 11023 11023 11023 11023 11023 11023 11022 11022 11021 11020 11019 11019 11018 11017 11016 11016 11015 11014 11013 11012 11011 11010 11009 11008 11008 11008 11007 11006 11005 11004 11003 11001 11000 10998 10997 10997 10995 10994 10993 10992 10990 10989 10987 10986 10984 10983 10982 10981 10980 10978 10976
10997 10998 10998 10998 10999 11000 11001 11003 11005 11006 11008 11011 11013 11014 11016 11017 11018 11019 11020 11020 11020 11021 11022 11022 11022 11023 11023 11022 11022 11022 11022 11022 11022 11022 11022 11022 11022 11022 11022 11021 11021 11021 11020 11020 11019 11018 11017 11017 11016 11015 11014 11014 11013 11012 11011 11010 11009 11008 11007 11007 11006 11006 11005 11004 11003 11001 11000 10998 10997 10996 10995 10994 10993 10991 10990 10989 10987 10985 10984 10982 10981 10980 10979 10978 10976
10994 10996 10997 10998 10998 10998 10999 11000 11002 11004 11005 11007 11009 11011 11012 11013 11015 11016 11018 11018 11019 11019 11020 11020 11021 11021 11021 11021 11020 11020 11020 11021 11021 11021 11021 11021 11021 11020 11020 11020 11020 11020 11019 11019 11019 11018 11017 11016 11015 11015 11014 11013 11012 11012 11011 11010 11009 11008 11007 11006 11006 11005 11004 11003 11002 11001 10999 10998 10996 10995 10993 10993 10992 10990 10989 10988 10986 10985 10983 10981 10979 10978 10977 10976 10975
10992 10993 10995 10996 10997 10997 10998 10998 10999 11001 11002 11004 11006 11007 11008 11010 11011 11013 11014 11016 11017 11017 11017 11018 11019 11019 11019 11019 11018 11018 11018 11018 11019 11019 11019 11019 11019 11019 11019 11019 11019 11018 11018 11018 11018 11017 11016 11016 11015 11014 11013 11012 11012 11011 11010 11009 11009 11008 11007 11006 11005 11004 11003 11002 11001 11000 10998 10997 10995 10994 10992 10991 10990 10989 10987 10986 10985 10983 10981 10980 10978 10976 10974 10973 10972
10990 10991 10992 10994 10995 10996 10997 10997 10998 10998 11000 11001 11002 11004 11005 11006 11008 11009 11011 11012 11013 11014 11015 11016 11017 11017 11017 11017 11017 11016 11016 11016 11016 11017 11017 11016 11017 11017 11017 11017 11017 11017 11017 11017 11017 11016 11015 11015 11014 11013 11012 11011 11011 11010 11009 11008 11008 11007 11006 11005 11004 11003 11002 11001 11000 10998 10997 10995 10994 10992 10991 10989 10988 10986 10985 10984 10983 10981 10979 10978 10976 10974 10972 10971 10970
10988 10989 10991 10992 10993 10994 10995 10996 10997 10997 10998 10998 11000 11001 11002 11003 11005 11006 11008 11009 11010 11011 11012 11013 11014 11014 11014 11014 11015 11014 11014 11014 11014 11015 11015 11014 11014 11015 11015 11015 11015 11015 11015 11015 11015 11015 11014 11013 11013 11012 11011 11010 11009 11009 11008 11007 11006 11006 11005 11004 11003 11002 11001 10999 10998 10997 10995 10994 10992 10991 10989 10987 10986 10984 10983 10982 10980 10979 10977 10976 10975 10973 10970 10969 10968
10986 10987 10989 10990 10991 10992 10993 10994 10995 10996 10996 10997 10998 10999 11000 11001 11002 11004 11005 11006 11007 11009 11009 11010 11010 11011 11011 11012 11012 11012 11012 11012 11012 11013 11013 11012 11012 11013 11013 11013 11013 11013 11013 11013 11013 11013 11013 11012 11011 11010 11010 11009 11008 11007 11006 11005 11005 11004 11003 11002 11001 11000 10999 10998 10997 10995 10994 10992 10990 10989 10987 10986 10984 10982 10981 10979 10978 10977 10975 10974 10973 10971 10969 10967 10965
10983 10985 10987 10988 10989 10990 10991 10992 10993 10994 10994 10995 10996 10997 10998 10999 11000 11001 11003 11004 11005 11006 11007 11007 11007 11008 11008 11009 11009 11010 11010 11010 11010 11010 11011 11011 11010 11010 11011 11011 11011 11011 11011 11011 11011 11011 11011 11010 11010 11009 11008 11007 11006 11005 11004 11004 11003 11002 11001 11000 10999 10998 10997 10996 10995 10993 10992 10990 10988 10987 10985 10984 10982 10981 10979 10977 10976 10974 10973 10972 10971 10969 10967 10965 10963
10979 10981 10983 10985 10987 10988 10989 10990 10991 10991 10992 10993 10994 10995 10996 10997 10998 10999 11001 11002 11004 11004 11005 11005 11005 11006 11006 11006 11006 11007 11008 11008 11008 11008 11008 11008 11008 11008 11008 11008 11009 11009 11009 11009 11009 11009 11009 11009 11008 11007 11006 11005 11004 11003 11002 11002 11001 11000 11000 10999 10997 10996 10995 10994 10992 10991 10990 10988 10986 10985 10983 10981 10980 10978 10977 10976 10974 10973 10971 10970 10968 10967 10965 10963 10961
10975 10976 10978 10981 10983 10985 10986 10988 10988 10989 10990 10991 10992 10993 10994 10995 10996 10998 10999 11000 11002 11003 11003 11003 11003 11003 11003 11003 11003 11004 11005 11006 11006 11006 11006 11006 11006 11006 11006 11006 11006 11006 11006 11007 11007 11007 11007 11007 11006 11005 11004 11003 11002 11001 11000 10999 10999 10998 10997 10997 10996 10994 10993 10991 10990 10988 10987 10985 10984 10982 10981 10979 10978 10976 10975 10974 10972 10971 10969 10968 10966 10965 10963 10961 10959
10972 10973 10975 10976 10979 10981 10983 10985 10986 10986 10987 10988 10989 10990 10991 10993 10995 10996 10997 10998 10999 11001 11001 11002 11002 11001 11002 11001 11001 11002 11003 11003 11004 11004 11004 11004 11004 11004 11004 11003 11003 11003 11003 11004 11004 11004 11004 11004 11004 11003 11002 11001 11000 10999 10998 10998 10997 10996 10995 10994 10993 10992 10990 10989 10987 10986 10984 10982 10981 10979 10977 10977 10975 10973 10972 10971 10969 10968 10967 10965 10964 10963 10961 10959 10957
10968 10971 10972 10973 10974 10976 10979 10981 10982 10984 10985 10986 10987 10988 10989 10991 10992 10994 10995 10996 10997 10998 11000 11000 11000 11000 11000 11000 10999 11000 11000 11001 11001 11001 11002 11002 11002 11002 11001 11000 11000 11000 11000 11001 11001 11001 11001 11001 11001 11001 11000 10999 10998 10996 10995 10995 10994 10993 10992 10991 10990 10989 10988 10986 10985 10983 10982 10980 10978 10976 10974 10973 10972 10971 10969 10967 10966 10965 10964 10963 10961 10960 10959 10957 10955
10964 10967 10969 10970 10971 10973 10975 10977 10979 10981 10983 10984 10985 10986 10987 10988 10990 10991 10992 10993 10994 10996 10997 10998 10998 10998 10998 10998 10998 10997 10997 10998 10998 10998 10999 10999 10999 10999 10998 10998 10997 10997 10998 10998 10998 10998 10998 10997 10997 10997 10997 10996 10995 10994 10993 10992 10991 10990 10989 10988 10987 10986 10985 10983 10982 10980 10979 10978 10976 10975 10972 10970 10969 10968 10966 10964 10963 10962 10961 10960 10959 10957 10956 10955 10953
10961 10962 10965 10967 10969 10970 10972 10974 10976 10979 10980 10982 10983 10984 10985 10986 10987 10988 10989 10990 10991 10992 10993 10995 10996 10996 10996 10995 10995 10995 10995 10995 10995 10995 10996 10996 10996 10996 10995 10995 10995 10994 10994 10995 10996 10996 10995 10994 10994 10993 10993 10992 10992 10991 10990 10989 10988 10987 10986 10985 10984 10983 10982 10980 10978 10977 10976 10975 10973 10972 10970 10968 10966 10965 10963 10962 10960 10959 10958 10957 10956 10954 10953 10952 10950
10956 10958 10960 10963 10966 10968 10970 10972 10974 10976 10978 10979 10980 10982 10982 10983 10984 10985 10986 10987 10988 10989 10990 10991 10992 10994 10994 10993 10993 10993 10993 10993 10993 10992 10992 10993 10992 10992 10992 10992 10991 10991 10991 10992 10992 10993 10992 10991 10990 10990 10989 10989 10988 10987 10987 10986 10985 10984 10983 10981 10980 10980 10979 10977 10975 10974 10973 10971 10970 10969 10968 10966 10964 10962 10961 10959 10957 10956 10955 10954 10953 10951 10949 10948 10947
10950 10953 10955 10959 10963 10966 10968 10969 10971 10973 10975 10976 10977 10979 10980 10980 10981 10981 10983 10984 10985 10985 10986 10987 10988 10990 10991 10991 10990 10990 10990 10990 10990 10989 10989 10989 10989 10988 10988 10988 10987 10987 10987 10988 10988 10989 10989 10988 10987 10986 10986 10985 10984 10983 10983 10982 10982 10981 10979 10978 10977 10976 10975 10973 10972 10970 10969 10968 10967 10966 10965 10963 10962 10960 10958 10957 10955 10953 10952 10950 10949 10948 10946 10945 10943
10944 10946 10950 10955 10959 10962 10964 10966 10968 10969 10971 10972 10974 10975 10976 10977 10977 10978 10979 10980 10981 10982 10983 10983 10984 10985 10986 10988 10988 10987 10987 10987 10987 10986 10986 10986 10985 10984 10984 10984 10983 10983 10983 10984 10984 10985 10985 10984 10983 10983 10982 10982 10981 10980 10979 10978 10978 10977 10977 10975 10974 10973 10971 10969 10968 10967 10966 10965 10964 10963 10962 10961 10960 10958 10957 10955 10952 10950 10949 10947 10946 10944 10942 10941 10939
10937 10941 10946 10951 10955 10958 10960 10962 10964 10965 10967 10968 10970 10971 10972 10973 10973 10974 10975 10976 10978 10979 10979 10979 10980 10981 10982 10983 10984 10984 10984 10983 10983 10983 10983 10982 10981 10981 10980 10979 10978 10978 10979 10979 10979 10980 10980 10980 10979 10978 10978 10978 10978 10977 10975 10974 10973 10972 10972 10972 10971 10969 10968 10966 10964 10963 10962 10961 10960 10960 10959 10959 10958 10956 10954 10952 10950 10948 10946 10944 10942 10940 10939 10938 10936
10932 10937 10943 10947 10950 10954 10956 10958 10959 10961 10962 10964 10966 10967 10968 10968 10969 10969 10970 10972 10973 10974 10975 10976 10976 10977 10977 10978 10979 10980 10980 10980 10979 10979 10979 10978 10978 10977 10976 10975 10974 10974 10974 10974 10974 10975 10975 10975 10975 10974 10974 10974 10974 10973 10972 10970 10969 10967 10967 10966 10966 10965 10964 10962 10961 10959 10958 10958 10957 10957 10957 10956 10955 10953 10951 10949 10947 10945 10943 10941 10939 10938 10936 10936 10934
10927 10932 10938 10943 10946 10949 10952 10954 10956 10957 10958 10958 10960 10961 10963 10964 10965 10965 10966 10967 10968 10969 10971 10972 10972 10972 10973 10973 10973 10974 10975 10976 10976 10975 10974 10974 10974 10973 10972 10971 10971 10970 10970 10970 10970 10970 10970 10970 10970 10969 10969 10969 10969 10968 10968 10967 10965 10964 10963 10961 10960 10959 10959 10958 10957 10956 10955 10955 10955 10954 10954 10953 10951 10949 10947 10945 10943 10941 10940 10938 10937 10936 10935 10934 10933
10922 10927 10933 10938 10941 10944 10946 10949 10952 10953 10953 10953 10953 10955 10957 10959 10960 10960 10961 10962 10963 10965 10966 10967 10968 10968 10968 10968 10968 10968 10969 10970 10970 10970 10970 10970 10970 10969 10968 10968 10967 10967 10966 10965 10965 10965 10965 10965 10965 10965 10965 10964 10963 10963 10963 10962 10961 10960 10959 10957 10956 10955 10955 10954 10954 10953 10952 10952 10952 10951 10950 10949 10947 10945 10943 10940 10939 10938 10937 10935 10935 10934 10933 10932 10931
10918 10922 10927 10931 10935 10937 10940 10944 10947 10949 10949 10948 10948 10949 10951 10953 10954 10955 10956 10957 10958 10959 10960 10962 10963 10964 10963 10963 10963 10963 10963 10963 10964 10965 10966 10966 10966 10966 10965 10965 10965 10964 10963 10962 10961 10961 10961 10960 10960 10960 10960 10959 10958 10958 10957 10957 10956 10956 10954 10953 10951 10951 10951 10950 10950 10949 10948 10948 10948 10947 10946 10945 10943 10941 10939 10937 10935 10934 10934 10934 10933 10932 10930 10928 10927
10913 10917 10920 10924 10928 10931 10934 10938 10941 10943 10943 10943 10943 10944 10945 10947 10949 10950 10950 10952 10952 10953 10954 10956 10957 10958 10958 10958 10957 10958 10958 10958 10958 10959 10961 10962 10962 10963 10962 10962 10962 10961 10960 10959 10958 10957 10957 10956 10955 10955 10954 10954 10953 10953 10952 10952 10951 10950 10949 10948 10947 10946 10946 10946 10946 10945 10944 10944 10943 10942 10941 10940 10939 10937 10935 10934 10932 10931 10931 10931 10929 10927 10925 10924 10922
10907 10910 10913 10916 10920 10924 10928 10931 10934 10936 10937 10938 10938 10939 10940 10942 10943 10944 10945 10946 10947 10947 10948 10949 10950 10951 10951 10952 10952 10953 10954 10954 10954 10955 10956 10956 10957 10959 10959 10959 10958 10958 10956 10956 10955 10954 10953 10952 10951 10950 10949 10949 10949 10948 10947 10947 10946 10945 10943 10942 10941 10941 10941 10941 10941 10940 10940 10939 10939 10938 10937 10936 10934 10933 10932 10931 10930 10928 10927 10926 10924 10921 10920 10919 10917
10900 10903 10906 10909 10913 10918 10922 10924 10926 10928 10931 10932 10933 10934 10935 10936 10937 10938 10939 10940 10941 10941 10942 10942 10943 10944 10944 10946 10948 10950 10950 10949 10949 10950 10952 10953 10954 10955 10955 10955 10955 10954 10953 10952 10951 10950 10949 10948 10947 10946 10945 10944 10944 10943 10942 10941 10940 10939 10938 10937 10936 10936 10936 10936 10936 10936 10936 10935 10934 10933 10932 10931 10930 10928 10928 10926 10925 10924 10923 10921 10919 10917 10916 10915 10913
10892 10896 10899 10902 10906 10911 10914 10917 10919 10922 10924 10926 10927 10929 10930 10931 10932 10933 10933 10934 10935 10936 10937 10937 10937 10937 10938 10941 10944 10945 10945 10944 10942 10944 10948 10950 10951 10950 10950 10950 10951 10950 10949 10949 10948 10947 10945 10944 10943 10942 10941 10940 10939 10938 10937 10936 10935 10934 10933 10932 10932 10931 10931 10931 10931 10931 10931 10930 10929 10928 10926 10926 10925 10923 10922 10921 10920 10919 10918 10917 10915 10913 10912 10911 10909
10885 10889 10892 10896 10900 10904 10907 10909 10912 10915 10917 10919 10921 10922 10923 10925 10926 10927 10928 10929 10930 10931 10931 10932 10932 10931 10933 10935 10937 10938 10939 10937 10937 10939 10943 10945 10946 10946 10946 10946 10947 10946 10946 10945 10944 10942 10941 10941 10940 10939 10938 10936 10935 10933 10932 10931 10930 10929 10928 10928 10927 10927 10926 10926 10926 10926 10925 10924 10923 10922 10921 10920 10919 10918 10917 10916 10915 10915 10914 10912 10911 10909 10908 10907 10905
10877 10881 10885 10890 10894 10897 10900 10903 10905 10908 10910 10913 10914 10916 10917 10919 10921 10922 10923 10923 10924 10925 10926 10927 10926 10926 10928 10929 10930 10931 10931 10931 10932 10935 10937 10938 10940 10942 10942 10942 10942 10942 10942 10942 10940 10939 10938 10938 10936 10935 10934 10933 10932 10930 10928 10927 10925 10924 10924 10923 10923 10922 10922 10921 10921 10920 10919 10918 10917 10916 10915 10914 10913 10913 10912 10911 10911 10910 10909 10908 10907 10904 10903 10901 10900
10869 10874 10879 10883 10886 10889 10893 10896 10899 10901 10904 10906 10908 10910 10912 10914 10915 10916 10917 10918 10919 10920 10921 10921 10921 10922 10923 10923 10923 10924 10924 10925 10927 10929 10929 10931 10934 10936 10937 10938 10938 10938 10938 10938 10936 10935 10935 10934 10934 10933 10931 10930 10928 10926 10924 10922 10921 10920 10919 10918 10918 10917 10917 10917 10916 10915 10913 10912 10912 10911 10910 10909 10909 10908 10907 10906 10906 10905 10904 10902 10901 10899 10897 10895 10894
10862 10866 10871 10875 10879 10882 10885 10889 10892 10894 10896 10898 10901 10904 10907 10908 10909 10910 10912 10914 10914 10915 10916 10916 10917 10918 10918 10918 10918 10918 10918 10919 10921 10922 10923 10926 10928 10930 10931 10932 10933 10933 10933 10933 10932 10931 10932 10932 10931 10930 10929 10927 10925 10922 10919 10917 10915 10914 10914 10913 10913 10913 10913 10912 10911 10910 10909 10907 10907 10906 10905 10905 10904 10903 10903 10902 10900 10899 10897 10896 10894 10893 10891 10890 10888
10854 10859 10863 10868 10871 10874 10878 10882 10885 10887 10889 10891 10894 10898 10900 10901 10902 10904 10906 10907 10907 10908 10909 10910 10912 10913 10913 10913 10913 10913 10913 10914 10915 10915 10917 10920 10922 10924 10926 10927 10927 10928 10928 10927 10927 10928 10928 10928 10928 10927 10927 10925 10922 10919 10915 10912 10910 10908 10907 10907 10907 10908 10909 10908 10906 10906 10906 10905 10903 10902 10901 10901 10900 10898 10897 10897 10895 10893 10892 10890 10889 10887 10886 10884 10883
10847 10852 10856 10860 10863 10867 10873 10877 10880 10881 10883 10886 10890 10893 10894 10894 10894 10897 10899 10899 10900 10901 10901 10902 10904 10907 10907 10907 10907 10907 10908 10909 10909 10909 10910 10913 10916 10918 10920 10921 10921 10922 10922 10922 10923 10923 10924 10924 10925 10925 10924 10923 10920 10916 10911 10909 10909 10909 10908 10906 10903 10902 10903 10904 10904 10905 10904 10903 10900 10898 10897 10895 10895 10894 10892 10891 10890 10888 10887 10886 10884 10882 10880 10879 10878
10841 10846 10849 10852 10856 10861 10867 10871 10873 10876 10880 10883 10887 10889 10890 10889 10890 10892 10894 10893 10893 10894 10894 10895 10898 10901 10902 10902 10902 10902 10902 10903 10903 10903 10904 10907 10910 10913 10915 10914 10915 10915 10916 10916 10917 10918 10919 10920 10921 10921 10922 10921 10917 10913 10911 10913 10914 10913 10910 10907 10903 10900 10900 10901 10901 10902 10901 10899 10896 10894 10892 10890 10889 10888 10887 10886 10885 10884 10882 10880 10879 10877 10875 10874 10873
10834 10839 10842 10845 10850 10855 10860 10864 10868 10873 10878 10882 10885 10885 10884 10883 10883 10885 10887 10888 10888 10888 10888 10889 10893 10896 10897 10897 10897 10896 10897 10897 10897 10897 10898 10902 10905 10907 10908 10908 10908 10909 10910 10910 10911 10912 10914 10915 10916 10918 10919 10919 10916 10914 10917 10918 10914 10907 10903 10902 10900 10899 10899 10898 10896 10895 10895 10893 10892 10889 10887 10885 10883 10882 10881 10881 10880 10879 10877 10875 10873 10872 10870 10869 10868
10828 10832 10834 10837 10842 10847 10852 10857 10862 10868 10874 10880 10883 10882 10880 10878 10877 10877 10878 10880 10882 10882 10882 10883 10886 10889 10890 10891 10891 10891 10891 10892 10891 10892 10894 10897 10900 10901 10902 10902 10903 10904 10904 10904 10905 10906 10908 10910 10912 10914 10916 10917 10919 10921 10923 10918 10907 10898 10896 10896 10894 10893 10892 10892 10890 10889 10888 10887 10887 10885 10882 10880 10878 10877 10877 10876 10875 10873 10872 10870 10868 10867 10865 10863 10862
10820 10824 10826 10829 10834 10840 10845 10850 10856 10863 10871 10878 10883 10883 10880 10876 10873 10871 10870 10871 10873 10875 10875 10876 10878 10881 10883 10884 10885 10885 10885 10886 10887 10888 10889 10891 10893 10895 10895 10896 10897 10898 10898 10898 10899 10901 10902 10904 10906 10908 10911 10915 10920 10923 10923 10917 10906 10895 10890 10889 10888 10885 10884 10884 10883 10882 10881 10880 10880 10879 10876 10875 10874 10873 10872 10871 10869 10867 10866 10865 10863 10861 10859 10857 10856
10812 10815 10818 10822 10826 10831 10837 10844 10849 10857 10865 10870 10873 10876 10876 10872 10867 10864 10863 10864 10865 10867 10868 10870 10872 10875 10876 10877 10878 10878 10878 10880 10881 10882 10883 10885 10887 10888 10889 10890 10891 10891 10891 10892 10893 10895 10896 10897 10899 10902 10905 10910 10917 10922 10921 10916 10907 10896 10890 10887 10886 10882 10879 10878 10876 10875 10874 10874 10873 10873 10871 10870 10869 10868 10867 10865 10863 10861 10860 10859 10857 10856 10853 10851 10850
10802 10806 10810 10814 10818 10823 10830 10837 10841 10846 10851 10852 10854 10858 10861 10862 10860 10859 10857 10857 10859 10861 10862 10864 10866 10869 10869 10869 10870 10871 10872 10873 10874 10875 10876 10878 10879 10881 10882 10883 10883 10883 10884 10885 10887 10888 10889 10890 10892 10893 10896 10901 10910 10917 10917 10913 10909 10903 10896 10891 10886 10880 10875 10873 10870 10868 10867 10866 10866 10866 10866 10864 10863 10861 10860 10859 10857 10855 10854 10853 10851 10850 10848 10846 10844
10793 10797 10801 10806 10810 10815 10822 10829 10833 10837 10840 10841 10843 10846 10848 10849 10851 10852 10850 10849 10851 10854 10856 10856 10858 10861 10863 10862 10862 10863 10864 10865 10865 10866 10869 10870 10872 10873 10874 10874 10875 10875 10877 10878 10879 10880 10881 10882 10883 10884 10886 10889 10894 10900 10900 10899 10900 10897 10891 10887 10883 10878 10872 10868 10865 10861 10858 10857 10857 10857 10858 10856 10855 10853 10852 10851 10849 10848 10847 10846 10845 10844 10842 10840 10838
10783 10788 10792 10797 10803 10809 10815 10821 10825 10829 10831 10833 10837 10840 10840 10840 10842 10842 10842 10842 10844 10846 10848 10849 10850 10853 10855 10855 10855 10856 10857 10857 10856 10858 10861 10862 10863 10864 10865 10865 10866 10867 10869 10870 10871 10871 10872 10873 10873 10875 10876 10878 10880 10883 10883 10882 10882 10880 10877 10875 10874 10872 10867 10863 10859 10856 10853 10851 10850 10849 10849 10849 10848 10846 10844 10842 10842 10841 10840 10839 10838 10837 10835 10833 10831
10774 10779 10784 10790 10795 10801 10807 10812 10816 10821 10823 10825 10826 10828 10830 10832 10834 10834 10834 10835 10836 10839 10841 10842 10843 10845 10847 10848 10848 10848 10849 10848 10849 10850 10852 10854 10854 10855 10855 10856 10857 10858 10860 10861 10862 10863 10863 10864 10864 10865 10867 10867 10869 10871 10871 10869 10868 10866 10864 10862 10861 10861 10859 10856 10853 10850 10848 10846 10844 10843 10842 10842 10842 10840 10838 10836 10835 10834 10833 10832 10831 10830 10829 10827 10825
10765 10771 10778 10784 10788 10793 10799 10804 10808 10812 10815 10816 10817 10819 10822 10824 10826 10828 10828 10828 10829 10831 10833 10834 10835 10837 10839 10841 10841 10841 10841 10841 10842 10842 10844 10845 10846 10846 10847 10847 10849 10850 10850 10851 10853 10854 10855 10855 10856 10856 10857 10857 10858 10859 10859 10858 10857 10855 10853 10851 10850 10850 10849 10848 10846 10843 10841 10839 10838 10837 10836 10836 10835 10834 10832 10831 10829 10828 10826 10825 10823 10822 10821 10820 10818
10757 10764 10771 10777 10780 10785 10790 10796 10800 10803 10806 10808 10811 10815 10817 10819 10820 10822 10822 10821 10821 10823 10825 10827 10828 10830 10832 10834 10834 10833 10832 10833 10834 10835 10836 10837 10838 10838 10839 10840 10840 10841 10842 10843 10845 10846 10846 10846 10847 10847 10847 10847 10848 10848 10847 10847 10846 10845 10843 10841 10840 10839 10839 10838 10837 10836 10835 10833 10831 10831 10830 10830 10829 10828 10826 10825 10824 10822 10820 10818 10816 10815 10813 10811 10810
10748 10756 10764 10770 10773 10778 10783 10788 10792 10796 10800 10806 10812 10817 10817 10816 10815 10815 10814 10814 10815 10817 10819 10820 10821 10823 10826 10828 10827 10825 10825 10825 10826 10827 10827 10828 10829 10830 10831 10832 10833 10833 10835 10836 10837 10838 10837 10837 10837 10837 10837 10837 10837 10837 10836 10836 10835 10834 10833 10831 10829 10828 10828 10828 10827 10827 10826 10826 10825 10824 10824 10824 10823 10822 10820 10819 10817 10815 10813 10811 10809 10807 10805 10803 10801
10740 10749 10757 10763 10767 10772 10778 10782 10786 10790 10796 10804 10813 10816 10812 10807 10804 10805 10806 10808 10810 10812 10813 10814 10815 10817 10820 10822 10821 10819 10818 10818 10819 10818 10818 10819 10820 10822 10824 10825 10825 10826 10828 10829 10829 10829 10828 10828 10827 10827 10827 10827 10827 10827 10826 10826 10825 10825 10823 10821 10820 10819 10819 10819 10819 10818 10817 10817 10817 10817 10817 10816 10815 10814 10812 10811 10809 10807 10805 10804 10802 10800 10797 10795 10792
10733 10743 10751 10756 10761 10768 10773 10776 10779 10783 10788 10795 10799 10798 10792 10789 10791 10795 10799 10802 10805 10807 10809 10809 10810 10812 10814 10815 10814 10814 10813 10811 10809 10808 10808 10809 10812 10815 10816 10817 10818 10820 10820 10821 10820 10819 10818 10818 10817 10817 10817 10817 10816 10816 10816 10815 10815 10814 10813 10811 10811 10811 10810 10810 10810 10809 10808 10807 10807 10808 10808 10807 10806 10805 10803 10802 10800 10799 10797 10795 10793 10791 10789 10786 10783
10727 10736 10742 10747 10753 10760 10765 10769 10772 10775 10778 10781 10783 10782 10780 10780 10784 10789 10794 10797 10800 10802 10804 10805 10806 10807 10807 10807 10807 10806 10805 10802 10799 10798 10799 10802 10805 10808 10809 10810 10811 10812 10811 10811 10810 10809 10808 10808 10808 10808 10808 10807 10806 10806 10806 10805 10804 10803 10803 10802 10801 10801 10801 10800 10800 10800 10799 10798 10797 10797 10798 10798 10797 10796 10795 10793 10792 10790 10788 10786 10784 10782 10779 10777 10775
10718 10727 10733 10738 10743 10749 10754 10758 10763 10767 10770 10771 10774 10776 10777 10778 10781 10785 10789 10793 10796 10797 10799 10801 10802 10803 10803 10803 10801 10799 10797 10795 10795 10795 10795 10795 10797 10799 10801 10802 10802 10802 10802 10801 10800 10799 10799 10798 10798 10798 10799 10798 10797 10796 10796 10795 10794 10793 10793 10793 10793 10792 10790 10790 10790 10790 10789 10788 10788 10787 10787 10787 10786 10786 10785 10784 10782 10780 10778 10776 10774 10771 10769 10766 10764
10709 10718 10725 10730 10735 10739 10744 10749 10755 10760 10761 10763 10766 10770 10773 10773 10774 10777 10782 10786 10789 10790 10792 10794 10796 10798 10800 10800 10797 10793 10793 10793 10792 10790 10788 10787 10788 10790 10791 10792 10793 10793 10792 10791 10791 10790 10790 10790 10789 10790 10791 10791 10788 10787 10787 10787 10787 10786 10784 10784 10783 10782 10780 10780 10780 10780 10780 10779 10778 10778 10777 10776 10775 10775 10774 10773 10771 10769 10767 10765 10763 10760 10758 10756 10753